STARLINK-1178 (45063 NORAD) Tracking and Keplerian Element Data

This shows tracking and keplerian element data for the satellite.

Feedback or suggestion? Click here.




ElementValue
Catalog45063
NameSTARLINK-1178
Epoch Orbit175
Epoch Day189.91668981
Epoch Year2020
RAAN222.675
Inclination52.9991
Eccentricity0.0001106
Argument of Perigee108.3804
Mean Anonmoly218.849
Mean Motion15.05550404
Decay Rate0.00033004
L11 45063U 20006V 20189.91668981 .00033004 00000-0 22755-2 0 9997
L22 45063 52.9991 222.6750 0001106 108.3804 218.8490 15.05550404 1755

Live tracking and technical data element details for STARLINK-1178 (NORAD 45063). STARLINK-1178 can be tracked NOW for your location showing map with azimuth and elevation plus other details from your city location.

Track the satellite on the map from your city or location and see movement details for azimuth, elevation, latitude, longitude, range, height, and movement on the map or in text.







IsCatalogInMostPopularTable: catalog: 45063, numindb: 27
Update: records affected: 1



GetName: 45063 STARLINK-1178

Hit Count: updated at: Thu, 09 Jul 2020 01:05:44 GMT